QPF
0.02 0.01 0.00 0.00 0.00 0.00 0.00 0.01 0.02 0.03 0.04 0.02 0.00 0.00 0.02 0.02 0.01 0.01 0.01 0.01 0.02 0.02 0.03 0.03 0.04 0.07 0.07 0.06 0.03 0.01 0.01 0.01 0.01 0.01 0.02 0.02 0.02 0.02 0.02 0.02 0.02 0.03 0.05 0.05
0.04 0.01 0.01 0.00 0.00 0.00 0.00 0.00 0.01 0.01 0.02 0.01 0.00 0.00 0.01 0.01 0.02 0.03 0.02 0.02 0.02 0.02 0.02 0.02 0.03 0.04 0.04 0.02 0.02 0.02 0.01 0.01 0.01 0.01 0.02 0.01 0.01 0.02 0.02 0.02 0.03 0.04 0.04 0.04
0.04 0.02 0.02 0.01 0.00 0.00 0.00 0.00 0.00 0.00 0.01 0.01 0.00 0.00 0.01 0.02 0.02 0.02 0.02 0.02 0.02 0.02 0.02 0.02 0.02 0.02 0.02 0.02 0.02 0.01 0.01 0.01 0.01 0.02 0.02 0.02 0.01 0.02 0.02 0.02 0.03 0.03 0.03 0.03
0.03 0.03 0.02 0.01 0.01 0.00 0.00 0.00 0.00 0.00 0.00 0.00 0.00 0.02 0.03 0.07 0.06 0.04 0.03 0.02 0.02 0.01 0.02 0.02 0.01 0.01 0.01 0.01 0.01 0.01 0.01 0.01 0.01 0.01 0.01 0.01 0.02 0.02 0.02 0.02 0.03 0.03 0.03 0.02
0.02 0.03 0.04 0.03 0.01 0.00 0.00 0.01 0.00 0.00 0.01 0.01 0.01 0.02 0.05 0.06 0.06 0.05 0.03 0.02 0.02 0.02 0.01 0.01 0.01 0.01 0.01 0.01 0.01 0.01 0.02 0.03 0.01 0.01 0.01 0.02 0.03 0.03 0.03 0.03 0.03 0.03 0.03 0.03
0.01 0.02 0.04 0.04 0.02 0.00 0.01 0.02 0.01 0.01 0.01 0.02 0.03 0.03 0.04 0.03 0.04 0.04 0.02 0.02 0.01 0.00 0.00 0.01 0.01 0.01 0.01 0.01 0.01 0.01 0.01 0.01 0.01 0.01 0.03 0.03 0.04 0.03 0.03 0.04 0.04 0.04 0.04 0.04
0.03 0.04 0.04 0.02 0.02 0.01 0.03 0.03 0.03 0.04 0.03 0.05 0.05 0.04 0.05 0.03 0.04 0.06 0.04 0.02 0.01 0.01 0.01 0.01 0.01 0.01 0.01 0.01 0.01 0.01 0.02 0.02 0.01 0.01 0.03 0.04 0.04 0.04 0.04 0.05 0.05 0.03 0.03 0.03
0.05 0.06 0.05 0.01 0.01 0.03 0.04 0.02 0.02 0.04 0.04 0.04 0.04 0.04 0.03 0.03 0.02 0.03 0.03 0.04 0.02 0.01 0.01 0.01 0.01 0.01 0.01 0.00 0.01 0.01 0.02 0.02 0.02 0.02 0.02 0.02 0.04 0.05 0.05 0.05 0.04 0.04 0.04 0.03
0.04 0.05 0.03 0.01 0.03 0.03 0.05 0.06 0.05 0.04 0.04 0.04 0.03 0.03 0.03 0.02 0.03 0.04 0.04 0.05 0.04 0.01 0.00 0.00 0.01 0.00 0.01 0.00 0.00 0.01 0.02 0.02 0.01 0.01 0.02 0.02 0.03 0.04 0.04 0.05 0.04 0.04 0.04 0.03
0.03 0.04 0.03 0.03 0.04 0.05 0.04 0.04 0.04 0.02 0.01 0.01 0.02 0.06 0.05 0.03 0.03 0.04 0.03 0.02 0.01 0.01 0.00 0.01 0.01 0.01 0.01 0.01 0.01 0.01 0.01 0.02 0.02 0.01 0.02 0.02 0.03 0.04 0.05 0.05 0.05 0.04 0.03 0.03
0.04 0.04 0.03 0.03 0.03 0.04 0.06 0.05 0.04 0.02 0.01 0.01 0.01 0.05 0.07 0.08 0.06 0.04 0.04 0.03 0.02 0.01 0.01 0.02 0.01 0.01 0.01 0.01 0.01 0.01 0.02 0.02 0.02 0.02 0.02 0.03 0.04 0.04 0.05 0.06 0.07 0.05 0.04 0.04
0.05 0.04 0.03 0.02 0.02 0.03 0.03 0.03 0.03 0.04 0.03 0.01 0.01 0.02 0.04 0.06 0.06 0.06 0.05 0.04 0.04 0.03 0.03 0.03 0.02 0.02 0.02 0.01 0.01 0.02 0.02 0.02 0.02 0.02 0.02 0.02 0.02 0.03 0.04 0.04 0.05 0.05 0.05 0.05
0.06 0.07 0.05 0.03 0.04 0.04 0.05 0.05 0.04 0.04 0.04 0.02 0.02 0.03 0.03 0.04 0.06 0.07 0.06 0.05 0.06 0.05 0.04 0.03 0.03 0.03 0.03 0.03 0.02 0.02 0.02 0.02 0.02 0.02 0.01 0.01 0.01 0.02 0.02 0.04 0.05 0.05 0.04 0.04
0.06 0.07 0.07 0.08 0.08 0.06 0.07 0.07 0.06 0.04 0.04 0.03 0.04 0.05 0.04 0.04 0.05 0.06 0.06 0.06 0.06 0.05 0.05 0.03 0.03 0.03 0.04 0.04 0.04 0.03 0.03 0.02 0.02 0.01 0.02 0.02 0.02 0.02 0.02 0.02 0.02 0.02 0.03 0.02
0.07 0.09 0.10 0.13 0.11 0.05 0.05 0.05 0.04 0.04 0.03 0.03 0.04 0.06 0.06 0.06 0.06 0.06 0.06 0.05 0.06 0.06 0.05 0.04 0.03 0.03 0.04 0.05 0.06 0.06 0.05 0.04 0.03 0.02 0.02 0.03 0.03 0.03 0.03 0.03 0.02 0.01 0.01 0.01
0.05 0.05 0.05 0.07 0.09 0.06 0.06 0.05 0.05 0.05 0.04 0.03 0.03 0.04 0.07 0.07 0.07 0.07 0.08 0.07 0.06 0.06 0.05 0.04 0.03 0.03 0.03 0.04 0.07 0.09 0.08 0.08 0.06 0.03 0.02 0.02 0.03 0.03 0.03 0.03 0.03 0.03 0.02 0.02
0.05 0.04 0.05 0.05 0.06 0.05 0.04 0.03 0.04 0.05 0.04 0.03 0.03 0.03 0.03 0.04 0.05 0.05 0.05 0.05 0.05 0.05 0.05 0.04 0.03 0.02 0.02 0.02 0.04 0.07 0.09 0.10 0.10 0.07 0.03 0.02 0.02 0.02 0.02 0.03 0.03 0.03 0.04 0.04
0.04 0.04 0.05 0.05 0.04 0.03 0.03 0.02 0.02 0.03 0.03 0.03 0.03 0.03 0.04 0.04 0.04 0.04 0.03 0.03 0.03 0.03 0.03 0.03 0.03 0.02 0.01 0.01 0.01 0.04 0.08 0.09 0.09 0.07 0.04 0.03 0.02 0.02 0.02 0.02 0.02 0.03 0.03 0.05
0.03 0.03 0.03 0.03 0.04 0.04 0.03 0.02 0.02 0.02 0.02 0.02 0.04 0.04 0.04 0.04 0.03 0.02 0.02 0.02 0.02 0.01 0.01 0.01 0.01 0.01 0.01 0.01 0.02 0.02 0.05 0.08 0.07 0.06 0.05 0.04 0.02 0.01 0.01 0.02 0.02 0.02 0.02 0.02
0.02 0.02 0.02 0.02 0.02 0.03 0.03 0.02 0.02 0.02 0.02 0.01 0.01 0.02 0.02 0.02 0.02 0.02 0.02 0.02 0.02 0.02 0.02 0.02 0.01 0.01 0.01 0.02 0.02 0.01 0.02 0.04 0.07 0.06 0.05 0.04 0.04 0.03 0.02 0.02 0.02 0.02 0.01 0.01
0.02 0.02 0.01 0.02 0.03 0.03 0.02 0.01 0.02 0.02 0.02 0.02 0.02 0.01 0.01 0.00 0.01 0.02 0.02 0.02 0.01 0.02 0.01 0.02 0.02 0.02 0.02 0.03 0.02 0.02 0.02 0.02 0.03 0.04 0.05 0.05 0.04 0.03 0.04 0.03 0.03 0.02 0.02 0.02
0.02 0.02 0.02 0.02 0.04 0.04 0.03 0.03 0.03 0.04 0.06 0.05 0.04 0.02 0.01 0.01 0.01 0.01 0.01 0.01 0.01 0.01 0.01 0.01 0.02 0.03 0.02 0.02 0.02 0.02 0.04 0.04 0.02 0.02 0.03 0.04 0.05 0.05 0.04 0.03 0.04 0.04 0.04 0.04
0.03 0.03 0.03 0.03 0.03 0.03 0.03 0.02 0.04 0.05 0.07 0.07 0.05 0.03 0.01 0.01 0.01 0.01 0.01 0.01 0.00 0.00 0.00 0.00 0.01 0.01 0.01 0.01 0.02 0.02 0.03 0.04 0.04 0.03 0.03 0.04 0.04 0.05 0.05 0.04 0.05 0.05 0.04 0.03
0.03 0.03 0.04 0.04 0.04 0.03 0.03 0.02 0.03 0.04 0.04 0.04 0.02 0.01 0.01 0.01 0.01 0.01 0.01 0.01 0.00 0.00 0.00 0.00 0.00 0.01 0.01 0.01 0.02 0.02 0.03 0.03 0.04 0.05 0.04 0.04 0.05 0.05 0.06 0.06 0.05 0.05 0.05 0.04
0.05 0.05 0.06 0.06 0.05 0.05 0.04 0.03 0.03 0.04 0.05 0.05 0.03 0.02 0.02 0.02 0.02 0.01 0.01 0.00 0.00 0.00 0.00 0.00 0.00 0.01 0.01 0.01 0.01 0.02 0.02 0.03 0.03 0.04 0.05 0.07 0.07 0.06 0.07 0.08 0.06 0.05 0.05 0.05
0.08 0.08 0.07 0.06 0.05 0.04 0.04 0.04 0.04 0.03 0.03 0.04 0.04 0.03 0.03 0.02 0.02 0.02 0.01 0.01 0.00 0.00 0.01 0.01 0.00 0.00 0.00 0.01 0.01 0.01 0.02 0.02 0.02 0.02 0.02 0.04 0.05 0.06 0.06 0.06 0.06 0.05 0.05 0.04
0.08 0.09 0.07 0.05 0.04 0.03 0.04 0.04 0.04 0.04 0.04 0.04 0.04 0.04 0.03 0.03 0.02 0.01 0.01 0.00 0.00 0.00 0.00 0.00 0.00 0.01 0.01 0.01 0.01 0.02 0.03 0.03 0.03 0.02 0.02 0.02 0.03 0.04 0.04 0.04 0.04 0.03 0.03 0.02
MSLP
1002.37 1003.23 1004.07 1004.89 1005.70 1006.50 1007.25 1007.92 1008.48 1008.89 1009.14 1009.27 1009.30 1009.30 1009.34 1009.49 1009.79 1010.26 1010.90 1011.67 1012.51 1013.37 1014.19 1014.93 1015.56 1016.10 1016.56 1016.96 1017.35 1017.74 1018.14 1018.56 1018.96 1019.35 1019.69 1019.96 1020.17 1020.32 1020.43 1020.51 1020.58 1020.67 1020.77 1020.90
1002.67 1003.53 1004.29 1004.97 1005.58 1006.14 1006.65 1007.11 1007.51 1007.84 1008.09 1008.27 1008.41 1008.55 1008.75 1009.02 1009.42 1009.95 1010.61 1011.37 1012.19 1013.03 1013.83 1014.58 1015.25 1015.83 1016.35 1016.82 1017.26 1017.69 1018.11 1018.54 1018.96 1019.35 1019.71 1020.02 1020.27 1020.47 1020.63 1020.78 1020.91 1021.04 1021.19 1021.34
1003.19 1004.03 1004.70 1005.22 1005.61 1005.92 1006.17 1006.39 1006.59 1006.78 1006.96 1007.15 1007.35 1007.59 1007.90 1008.30 1008.80 1009.41 1010.12 1010.91 1011.74 1012.59 1013.41 1014.19 1014.89 1015.53 1016.10 1016.62 1017.11 1017.58 1018.04 1018.49 1018.92 1019.33 1019.71 1020.05 1020.35 1020.60 1020.83 1021.02 1021.20 1021.37 1021.54 1021.70
1003.83 1004.62 1005.18 1005.53 1005.71 1005.78 1005.77 1005.75 1005.74 1005.76 1005.84 1005.98 1006.19 1006.50 1006.89 1007.39 1007.99 1008.69 1009.48 1010.33 1011.21 1012.10 1012.97 1013.78 1014.54 1015.23 1015.85 1016.43 1016.96 1017.46 1017.95 1018.42 1018.87 1019.30 1019.71 1020.08 1020.41 1020.70 1020.96 1021.19 1021.39 1021.58 1021.75 1021.91
1004.43 1005.13 1005.57 1005.77 1005.76 1005.61 1005.39 1005.15 1004.94 1004.81 1004.77 1004.85 1005.06 1005.39 1005.85 1006.43 1007.12 1007.92 1008.79 1009.71 1010.67 1011.62 1012.54 1013.42 1014.23 1014.97 1015.65 1016.26 1016.83 1017.37 1017.87 1018.36 1018.82 1019.27 1019.68 1020.07 1020.42 1020.73 1021.01 1021.25 1021.46 1021.64 1021.81 1021.95
1004.84 1005.43 1005.74 1005.81 1005.66 1005.35 1004.97 1004.58 1004.23 1003.98 1003.85 1003.87 1004.06 1004.41 1004.91 1005.56 1006.33 1007.20 1008.15 1009.15 1010.18 1011.20 1012.18 1013.11 1013.98 1014.77 1015.49 1016.15 1016.74 1017.30 1017.82 1018.31 1018.78 1019.22 1019.63 1020.02 1020.36 1020.67 1020.95 1021.18 1021.38 1021.55 1021.69 1021.82
1004.95 1005.42 1005.63 1005.60 1005.36 1004.98 1004.52 1004.05 1003.64 1003.33 1003.16 1003.16 1003.34 1003.70 1004.23 1004.92 1005.73 1006.66 1007.67 1008.72 1009.80 1010.87 1011.90 1012.88 1013.79 1014.62 1015.37 1016.05 1016.67 1017.23 1017.75 1018.24 1018.70 1019.13 1019.53 1019.89 1020.22 1020.51 1020.77 1020.98 1021.16 1021.31 1021.43 1021.55
1004.78 1005.13 1005.26 1005.18 1004.92 1004.54 1004.09 1003.65 1003.25 1002.96 1002.80 1002.81 1003.00 1003.37 1003.91 1004.60 1005.43 1006.38 1007.40 1008.47 1009.57 1010.66 1011.71 1012.71 1013.63 1014.48 1015.25 1015.94 1016.56 1017.13 1017.64 1018.12 1018.56 1018.97 1019.34 1019.68 1019.98 1020.25 1020.47 1020.66 1020.83 1020.96 1021.09 1021.21
1004.41 1004.66 1004.74 1004.67 1004.45 1004.15 1003.79 1003.44 1003.14 1002.92 1002.83 1002.88 1003.10 1003.47 1004.00 1004.68 1005.48 1006.39 1007.38 1008.42 1009.48 1010.55 1011.58 1012.56 1013.47 1014.32 1015.08 1015.77 1016.39 1016.94 1017.45 1017.91 1018.32 1018.71 1019.05 1019.36 1019.64 1019.87 1020.08 1020.26 1020.42 1020.56 1020.70 1020.85
1004.00 1004.18 1004.25 1004.22 1004.10 1003.92 1003.71 1003.51 1003.36 1003.27 1003.27 1003.39 1003.63 1004.00 1004.50 1005.12 1005.85 1006.68 1007.58 1008.54 1009.52 1010.51 1011.47 1012.40 1013.27 1014.09 1014.83 1015.50 1016.10 1016.64 1017.13 1017.58 1017.97 1018.34 1018.66 1018.94 1019.20 1019.42 1019.62 1019.80 1019.97 1020.13 1020.31 1020.50
1003.74 1003.89 1003.97 1004.01 1004.01 1003.98 1003.94 1003.92 1003.93 1003.98 1004.09 1004.27 1004.54 1004.89 1005.34 1005.87 1006.49 1007.19 1007.96 1008.79 1009.64 1010.51 1011.38 1012.22 1013.02 1013.78 1014.48 1015.12 1015.70 1016.23 1016.70 1017.13 1017.51 1017.86 1018.16 1018.43 1018.68 1018.90 1019.10 1019.29 1019.49 1019.69 1019.92 1020.17
1003.80 1003.92 1004.03 1004.14 1004.25 1004.37 1004.50 1004.64 1004.80 1004.98 1005.19 1005.43 1005.70 1006.02 1006.39 1006.81 1007.30 1007.85 1008.46 1009.12 1009.82 1010.54 1011.28 1012.01 1012.72 1013.40 1014.05 1014.65 1015.21 1015.71 1016.17 1016.59 1016.96 1017.29 1017.59 1017.85 1018.09 1018.32 1018.53 1018.75 1018.98 1019.23 1019.51 1019.81
1004.23 1004.34 1004.47 1004.63 1004.83 1005.06 1005.31 1005.59 1005.86 1006.14 1006.42 1006.68 1006.95 1007.22 1007.51 1007.82 1008.17 1008.56 1009.00 1009.48 1010.02 1010.59 1011.19 1011.80 1012.41 1013.02 1013.60 1014.15 1014.67 1015.16 1015.60 1016.00 1016.36 1016.68 1016.97 1017.23 1017.47 1017.70 1017.93 1018.17 1018.43 1018.72 1019.04 1019.39
1005.00 1005.10 1005.23 1005.42 1005.66 1005.95 1006.28 1006.63 1006.98 1007.31 1007.63 1007.90 1008.15 1008.36 1008.57 1008.77 1008.99 1009.24 1009.52 1009.86 1010.24 1010.67 1011.13 1011.63 1012.14 1012.67 1013.18 1013.69 1014.17 1014.62 1015.04 1015.41 1015.75 1016.06 1016.33 1016.58 1016.81 1017.04 1017.28 1017.54 1017.82 1018.14 1018.49 1018.86
1006.01 1006.07 1006.18 1006.36 1006.60 1006.91 1007.27 1007.64 1008.02 1008.38 1008.69 1008.96 1009.18 1009.35 1009.49 1009.60 1009.72 1009.85 1010.02 1010.22 1010.48 1010.79 1011.14 1011.54 1011.96 1012.41 1012.86 1013.31 1013.74 1014.15 1014.53 1014.87 1015.18 1015.45 1015.70 1015.92 1016.14 1016.35 1016.59 1016.84 1017.13 1017.46 1017.82 1018.21
1007.10 1007.11 1007.18 1007.32 1007.54 1007.83 1008.17 1008.54 1008.90 1009.25 1009.56 1009.81 1010.00 1010.13 1010.22 1010.28 1010.33 1010.38 1010.47 1010.59 1010.75 1010.97 1011.24 1011.55 1011.90 1012.27 1012.66 1013.04 1013.42 1013.77 1014.10 1014.39 1014.65 1014.88 1015.08 1015.27 1015.45 1015.64 1015.85 1016.10 1016.37 1016.69 1017.05 1017.43
1008.14 1008.09 1008.11 1008.20 1008.37 1008.62 1008.92 1009.26 1009.60 1009.92 1010.21 1010.44 1010.60 1010.71 1010.78 1010.81 1010.82 1010.84 1010.87 1010.95 1011.06 1011.22 1011.42 1011.67 1011.95 1012.26 1012.58 1012.89 1013.20 1013.49 1013.75 1013.98 1014.18 1014.35 1014.50 1014.63 1014.77 1014.92 1015.10 1015.31 1015.57 1015.87 1016.20 1016.56
1009.02 1008.93 1008.89 1008.94 1009.07 1009.28 1009.54 1009.84 1010.15 1010.44 1010.70 1010.91 1011.06 1011.15 1011.21 1011.23 1011.23 1011.24 1011.26 1011.30 1011.39 1011.51 1011.67 1011.87 1012.09 1012.34 1012.59 1012.83 1013.06 1013.28 1013.46 1013.62 1013.75 1013.85 1013.94 1014.02 1014.11 1014.21 1014.35 1014.53 1014.76 1015.03 1015.34 1015.68
1009.73 1009.60 1009.54 1009.55 1009.66 1009.83 1010.07 1010.33 1010.61 1010.87 1011.10 1011.29 1011.42 1011.51 1011.56 1011.58 1011.58 1011.59 1011.60 1011.64 1011.71 1011.81 1011.94 1012.10 1012.27 1012.45 1012.64 1012.81 1012.97 1013.10 1013.21 1013.29 1013.35 1013.38 1013.41 1013.44 1013.48 1013.55 1013.65 1013.80 1014.00 1014.25 1014.54 1014.86
1010.31 1010.17 1010.10 1010.11 1010.20 1010.37 1010.58 1010.82 1011.07 1011.29 1011.49 1011.65 1011.76 1011.83 1011.87 1011.88 1011.88 1011.89 1011.91 1011.94 1012.00 1012.08 1012.19 1012.30 1012.43 1012.56 1012.68 1012.79 1012.87 1012.93 1012.97 1012.98 1012.97 1012.95 1012.93 1012.92 1012.92 1012.96 1013.04 1013.17 1013.35 1013.58 1013.85 1014.15
1010.84 1010.70 1010.64 1010.67 1010.77 1010.93 1011.13 1011.34 1011.56 1011.75 1011.91 1012.03 1012.10 1012.14 1012.15 1012.15 1012.14 1012.14 1012.15 1012.17 1012.22 1012.28 1012.36 1012.45 1012.53 1012.61 1012.68 1012.72 1012.75 1012.75 1012.72 1012.68 1012.63 1012.57 1012.52 1012.48 1012.47 1012.49 1012.56 1012.67 1012.84 1013.05 1013.31 1013.59
1011.37 1011.25 1011.22 1011.27 1011.38 1011.54 1011.72 1011.91 1012.09 1012.23 1012.34 1012.40 1012.43 1012.43 1012.40 1012.37 1012.34 1012.32 1012.31 1012.32 1012.36 1012.40 1012.46 1012.51 1012.56 1012.60 1012.62 1012.62 1012.59 1012.55 1012.48 1012.41 1012.33 1012.25 1012.18 1012.14 1012.12 1012.15 1012.21 1012.33 1012.48 1012.69 1012.92 1013.18
1011.94 1011.85 1011.84 1011.91 1012.03 1012.18 1012.34 1012.49 1012.61 1012.70 1012.75 1012.75 1012.72 1012.66 1012.60 1012.53 1012.47 1012.42 1012.40 1012.40 1012.41 1012.44 1012.47 1012.50 1012.52 1012.53 1012.51 1012.48 1012.42 1012.35 1012.26 1012.17 1012.07 1011.99 1011.93 1011.89 1011.89 1011.92 1012.00 1012.12 1012.27 1012.46 1012.67 1012.90
1012.55 1012.47 1012.48 1012.55 1012.66 1012.79 1012.91 1013.01 1013.08 1013.10 1013.08 1013.02 1012.93 1012.83 1012.72 1012.62 1012.54 1012.47 1012.43 1012.42 1012.42 1012.43 1012.45 1012.46 1012.46 1012.43 1012.39 1012.33 1012.25 1012.16 1012.07 1011.97 1011.88 1011.81 1011.76 1011.74 1011.76 1011.81 1011.89 1012.01 1012.16 1012.33 1012.52 1012.71
1013.13 1013.07 1013.08 1013.14 1013.22 1013.31 1013.38 1013.42 1013.42 1013.38 1013.30 1013.19 1013.06 1012.92 1012.79 1012.67 1012.57 1012.50 1012.45 1012.43 1012.43 1012.43 1012.42 1012.41 1012.39 1012.35 1012.28 1012.20 1012.11 1012.01 1011.91 1011.81 1011.74 1011.68 1011.66 1011.66 1011.70 1011.76 1011.86 1011.98 1012.11 1012.26 1012.42 1012.57
1013.63 1013.58 1013.58 1013.61 1013.65 1013.68 1013.70 1013.68 1013.63 1013.54 1013.42 1013.27 1013.12 1012.97 1012.83 1012.71 1012.62 1012.55 1012.51 1012.48 1012.47 1012.46 1012.44 1012.40 1012.35 1012.29 1012.20 1012.10 1011.99 1011.88 1011.78 1011.69 1011.63 1011.59 1011.59 1011.61 1011.66 1011.74 1011.84 1011.96 1012.08 1012.21 1012.33 1012.44
1014.03 1013.97 1013.95 1013.94 1013.94 1013.92 1013.88 1013.82 1013.72 1013.60 1013.47 1013.31 1013.16 1013.02 1012.90 1012.80 1012.72 1012.67 1012.63 1012.61 1012.58 1012.55 1012.51 1012.45 1012.37 1012.27 1012.15 1012.02 1011.90 1011.78 1011.67 1011.59 1011.54 1011.52 1011.53 1011.57 1011.63 1011.72 1011.82 1011.93 1012.03 1012.13 1012.22 1012.29
Thickness
5800 5816 5820 5817 5821 5828 5824 5822 5813 5815 5818 5821 5828 5831 5831 5831 5830 5827 5823 5820 5817 5814 5811 5809 5806 5804 5802 5799 5797 5795 5790 5784 5781 5778 5774 5771 5768 5765 5762 5759 5755 5751 5747 5744
5789 5807 5813 5813 5819 5822 5824 5827 5825 5823 5819 5833 5836 5834 5828 5825 5823 5818 5814 5813 5812 5809 5806 5803 5801 5799 5797 5794 5792 5789 5784 5779 5777 5773 5769 5766 5763 5760 5756 5753 5750 5746 5742 5738
5771 5793 5796 5788 5810 5816 5818 5827 5825 5814 5819 5832 5827 5822 5819 5820 5818 5814 5812 5809 5806 5804 5802 5800 5799 5796 5792 5790 5787 5783 5779 5775 5771 5768 5764 5761 5759 5755 5751 5747 5744 5740 5737 5732
5763 5767 5751 5789 5825 5826 5821 5822 5828 5826 5826 5828 5825 5823 5821 5817 5813 5809 5807 5805 5802 5800 5797 5797 5795 5793 5790 5786 5781 5777 5772 5769 5766 5763 5759 5755 5752 5748 5745 5742 5738 5734 5731 5727
5756 5751 5760 5788 5809 5814 5806 5801 5821 5819 5821 5822 5822 5815 5808 5811 5812 5807 5805 5801 5798 5797 5794 5791 5789 5787 5783 5778 5774 5770 5765 5761 5758 5757 5753 5749 5745 5742 5739 5736 5732 5729 5725 5721
5752 5742 5742 5772 5802 5815 5805 5784 5812 5815 5812 5812 5809 5790 5790 5803 5805 5801 5799 5796 5793 5792 5788 5783 5782 5780 5774 5770 5766 5762 5760 5756 5754 5751 5747 5742 5739 5736 5734 5730 5726 5723 5719 5716
5743 5742 5753 5780 5796 5799 5766 5768 5803 5807 5806 5806 5798 5794 5795 5797 5795 5791 5789 5787 5786 5782 5778 5775 5774 5771 5765 5761 5758 5757 5755 5751 5747 5744 5740 5737 5733 5730 5727 5724 5720 5717 5713 5710
5738 5733 5740 5776 5784 5771 5766 5786 5795 5797 5798 5795 5790 5791 5790 5788 5784 5782 5778 5777 5775 5770 5767 5766 5765 5761 5756 5752 5752 5750 5747 5743 5740 5737 5734 5731 5726 5722 5719 5716 5712 5709 5706 5703
5738 5738 5755 5770 5772 5776 5779 5777 5781 5786 5788 5788 5783 5781 5779 5776 5774 5772 5769 5766 5764 5760 5757 5756 5755 5752 5747 5745 5744 5742 5738 5735 5732 5729 5726 5724 5719 5715 5711 5709 5706 5703 5700 5697
5736 5742 5752 5761 5768 5770 5774 5773 5776 5778 5782 5780 5774 5772 5768 5766 5763 5761 5760 5757 5755 5751 5747 5745 5745 5743 5740 5739 5737 5734 5730 5727 5724 5721 5718 5715 5711 5709 5705 5702 5699 5696 5694 5691
5724 5734 5741 5747 5753 5758 5762 5766 5767 5767 5771 5770 5766 5763 5760 5755 5752 5751 5749 5748 5745 5741 5738 5736 5736 5734 5733 5731 5729 5725 5722 5720 5717 5714 5711 5706 5702 5698 5696 5692 5690 5687 5686 5683
5712 5725 5729 5732 5743 5751 5750 5752 5753 5754 5756 5758 5756 5752 5751 5747 5745 5743 5740 5738 5734 5732 5730 5728 5727 5725 5724 5723 5721 5718 5714 5712 5710 5708 5704 5700 5696 5690 5685 5684 5680 5678 5676 5674
5715 5721 5725 5730 5736 5741 5741 5743 5745 5746 5745 5744 5744 5743 5740 5736 5734 5731 5729 5727 5725 5723 5721 5720 5719 5716 5715 5714 5712 5710 5707 5705 5704 5701 5698 5695 5692 5687 5680 5674 5670 5668 5667 5665
5709 5711 5711 5716 5721 5728 5730 5733 5734 5735 5735 5734 5731 5730 5727 5724 5722 5719 5717 5718 5717 5715 5713 5711 5709 5708 5707 5706 5704 5702 5701 5698 5697 5694 5692 5690 5687 5683 5679 5674 5668 5664 5659 5656
5699 5703 5704 5707 5711 5715 5719 5720 5719 5718 5719 5719 5718 5717 5714 5712 5708 5707 5708 5709 5708 5705 5703 5701 5699 5698 5699 5697 5696 5694 5694 5692 5690 5688 5686 5683 5681 5678 5674 5671 5666 5661 5655 5649
5690 5695 5697 5698 5699 5702 5705 5705 5704 5704 5705 5704 5703 5703 5702 5701 5698 5697 5696 5697 5695 5693 5692 5691 5690 5690 5690 5690 5688 5687 5685 5684 5681 5679 5678 5676 5674 5671 5668 5664 5661 5656 5652 5647
5679 5680 5683 5685 5688 5690 5692 5694 5693 5693 5692 5690 5690 5691 5691 5689 5686 5684 5685 5686 5685 5683 5683 5682 5681 5682 5682 5681 5680 5680 5678 5676 5672 5670 5669 5668 5665 5663 5661 5657 5654 5651 5647 5643
5675 5677 5679 5679 5680 5680 5680 5682 5682 5682 5681 5680 5680 5680 5678 5676 5674 5674 5675 5676 5675 5674 5673 5673 5673 5672 5672 5673 5672 5671 5669 5667 5665 5664 5662 5659 5657 5655 5653 5650 5648 5645 5641 5638
5669 5669 5670 5671 5672 5672 5670 5670 5671 5672 5671 5671 5670 5668 5668 5667 5666 5666 5666 5666 5664 5662 5663 5664 5662 5663 5663 5663 5662 5661 5660 5658 5657 5655 5654 5650 5648 5647 5645 5642 5640 5637 5634 5631
5660 5661 5661 5662 5663 5662 5661 5661 5661 5660 5661 5660 5660 5658 5657 5658 5658 5657 5657 5656 5656 5656 5656 5655 5654 5654 5654 5654 5652 5653 5652 5650 5648 5646 5644 5643 5641 5638 5635 5634 5632 5630 5626 5624
5649 5650 5651 5651 5652 5652 5652 5652 5650 5649 5650 5650 5649 5649 5649 5649 5649 5649 5647 5647 5648 5648 5647 5645 5645 5645 5645 5644 5642 5644 5643 5641 5639 5637 5636 5634 5632 5629 5627 5626 5624 5622 5619 5616
5638 5639 5641 5642 5641 5641 5642 5642 5641 5640 5639 5640 5641 5641 5641 5640 5641 5641 5641 5640 5640 5639 5639 5639 5638 5636 5636 5634 5636 5635 5634 5632 5631 5630 5629 5627 5625 5622 5619 5618 5617 5615 5613 5610
5628 5629 5630 5631 5632 5632 5633 5633 5632 5631 5630 5630 5631 5631 5632 5633 5634 5633 5633 5635 5635 5632 5632 5632 5630 5627 5625 5627 5628 5627 5626 5625 5624 5623 5621 5619 5617 5616 5614 5613 5611 5609 5606 5603
5618 5618 5619 5621 5623 5623 5622 5623 5623 5623 5624 5624 5624 5625 5625 5626 5627 5629 5630 5628 5626 5624 5625 5622 5620 5619 5617 5620 5621 5620 5620 5619 5618 5617 5615 5613 5611 5609 5607 5605 5603 5601 5598 5597
5610 5611 5611 5611 5613 5614 5615 5616 5616 5617 5616 5618 5618 5620 5621 5622 5622 5622 5622 5621 5619 5617 5618 5615 5613 5612 5612 5615 5616 5615 5615 5613 5612 5610 5608 5606 5605 5603 5601 5598 5596 5594 5592 5590
5603 5604 5605 5605 5607 5608 5609 5610 5610 5611 5612 5611 5612 5613 5615 5616 5616 5616 5614 5613 5613 5611 5611 5610 5608 5606 5608 5610 5611 5610 5609 5607 5606 5604 5603 5602 5599 5597 5595 5593 5591 5589 5586 5583
5599 5599 5599 5600 5602 5604 5604 5604 5604 5605 5606 5605 5605 5606 5608 5608 5609 5609 5608 5607 5606 5606 5606 5605 5605 5604 5604 5605 5605 5603 5603 5602 5600 5599 5598 5596 5594 5591 5590 5587 5585 5582 5580 5577